This demonstration page uses our WeatherBlox Daily Observations layout. Learn more.

Left ArrowRight Arrow

39.92423, -83.80882

Hourly Observations for June 2, 2015

Temp ( °F °C ) Dew Point ( °F °C ) Humidity (%) Winds ( mph kmh ) Pressure ( in mb ) Visibility ( mi km ) Precip ( " mm )
12:56 am 00:56 Clear 49 9.4 48 8.8 96 96 NE 7 11 30.18 1022 8 12.87472 0 0
1:56 am 01:56 Clear 48 8.8 48 8.8 100 100 NNE 6 9 30.16 1021 7 11.26538 0 0
2:56 am 02:56 Clear 48 8.8 48 8.8 100 100 Calm 30.15 1021 8 12.87472 0 0
3:30 am 03:30 Mostly Cloudy 48 9 48 9 100 100 N 3 6 30.18 1022 7 11.26538 0 0
3:56 am 03:56 Cloudy 49 9.4 49 9.4 100 100 NE 10 17 30.14 1021 7 11.26538 0 0
4:20 am 04:20 Cloudy with Mist and Fog 50 10 48 9 94 94 NE 8 13 30.18 1022 6 9.65604 0 0
4:56 am 04:56 Cloudy with Mist and Fog 50 10 49 9.4 96 96 ENE 9 15 30.14 1021 6 9.65604 0 0
5:56 am 05:56 Cloudy with Mist and Fog 50 10 49 9.4 96 96 E 6 9 30.14 1021 6 9.65604 0 0
6:56 am 06:56 Cloudy with Mist and Fog 50 10 49 9.4 96 96 ENE 9 15 30.15 1021 5 8.0467 0 0
7:56 am 07:56 Cloudy with Mist and Fog 50 10 49 9.4 96 96 ENE 7 11 30.17 1022 5 8.0467 0 0
8:56 am 08:56 Cloudy with Mist and Fog 51 10.5 49 9.4 93 93 NNE 8 13 30.18 1022 6 9.65604 0 0
9:56 am 09:56 Cloudy with Mist and Fog 52 11.1 50 10 93 93 ENE 7 11 30.2 1023 6 9.65604 0 0
10:56 am 10:56 Cloudy 54 12.2 50 10 87 87 NNE 5 7 30.19 1022 7 11.26538 0 0
11:25 am 11:25 Cloudy 54 12 52 11 94 94 NE 8 13 30.18 1022 7 11.26538 0 0
11:56 am 11:56 Cloudy 55 12.7 51 10.5 87 87 NNE 7 11 30.19 1022 8 12.87472 0 0
12:56 pm 12:56 Cloudy 56 13.3 52 11.1 87 87 NE 6 9 30.19 1022 8 12.87472 0 0
1:56 pm 13:56 Cloudy 58 14.4 52 11.1 81 81 NE 8 13 30.17 1022 8 12.87472 0 0
2:19 pm 14:19 Cloudy 59 15 54 12 82 82 NNE 9 15 30.18 1022 9 14.48406 0 0
2:56 pm 14:56 Cloudy 61 16.1 53 11.6 75 75 NE 8 13 30.15 1021 9 14.48406 0 0
3:56 pm 15:56 Cloudy 63 17.2 54 12.2 73 73 NNE 10 17 30.12 1020 9 14.48406 0 0
4:56 pm 16:56 Cloudy 64 17.7 55 12.7 73 73 VRB 6 9 30.1 1019 9 14.48406 0 0
5:56 pm 17:56 Cloudy 65 18.3 55 12.7 70 70 ENE 6 9 30.1 1019 10 16.0934 0 0
6:56 pm 18:56 Cloudy 66 18.8 56 13.3 71 71 ENE 8 13 30.09 1019 10 16.0934 0 0
7:27 pm 19:27 Cloudy 66 19 55 13 68 68 ENE 7 11 30.06 1018 9 14.48406 0 0
7:56 pm 19:56 Cloudy 65 18.3 55 12.7 70 70 NNE 7 11 30.1 1019 9 14.48406 0 0
8:56 pm 20:56 Mostly Sunny 61 16.1 55 12.7 80 80 ESE 6 9 30.11 1020 10 16.0934 0 0
9:56 pm 21:56 Clear 57 13.8 54 12.2 90 90 ESE 6 9 30.11 1020 9 14.48406 0 0
10:56 pm 22:56 Clear 55 12.7 53 11.6 93 93 Calm 30.14 1021 7 11.26538 0 0
11:56 pm 23:56 Mostly Cloudy with Mist and Fog 55 12.7 54 12.2 97 97 ESE 5 7 30.14 1021 6 9.65604 0 0

Powered by AerisWeather